TimeCDT,TemperatureF,Dew PointF,Humidity,Sea Level PressureIn,VisibilityMPH,Wind Direction,Wind SpeedMPH,Gust SpeedMPH,PrecipitationIn,Events,Conditions,WindDirDegrees,DateUTC
12:15 AM,28.4,24.8,86,29.95,0.8,South,16.1,20.7,N/A,,Overcast,170,2014-03-27 05:15:00
12:35 AM,28.4,26.6,93,29.94,0.2,South,13.8,26.5,N/A,,Overcast,170,2014-03-27 05:35:00
12:55 AM,28.4,26.6,93,29.93,0.2,South,15.0,-,N/A,,Overcast,170,2014-03-27 05:55:00
1:15 AM,28.4,26.6,93,29.91,0.2,SSE,17.3,-,N/A,,Overcast,160,2014-03-27 06:15:00
1:35 AM,30.2,28.4,93,29.91,0.2,SSE,18.4,24.2,N/A,,Overcast,150,2014-03-27 06:35:00
1:55 AM,28.4,26.6,93,29.89,0.2,SSE,17.3,29.9,N/A,,Overcast,160,2014-03-27 06:55:00
2:15 AM,30.2,26.6,86,29.88,0.5,SSE,19.6,-,N/A,,Overcast,150,2014-03-27 07:15:00
2:35 AM,30.2,26.6,86,29.87,1.5,SSE,15.0,21.9,N/A,,Overcast,160,2014-03-27 07:35:00
2:55 AM,30.2,26.6,86,29.86,5.0,SSE,13.8,23.0,N/A,,Mostly Cloudy,160,2014-03-27 07:55:00
3:15 AM,32.0,24.8,75,29.85,10.0,SSE,15.0,21.9,N/A,,Overcast,160,2014-03-27 08:15:00
3:35 AM,32.0,24.8,75,29.84,10.0,South,16.1,21.9,N/A,,Overcast,170,2014-03-27 08:35:00
3:55 AM,32.0,24.8,75,29.83,7.0,South,16.1,25.3,N/A,,Overcast,170,2014-03-27 08:55:00
4:15 AM,32.0,24.8,75,29.82,3.0,South,18.4,25.3,N/A,,Overcast,170,2014-03-27 09:15:00
4:35 AM,30.2,26.6,86,29.82,2.5,South,15.0,21.9,N/A,,Overcast,170,2014-03-27 09:35:00
4:55 AM,30.2,26.6,86,29.81,4.0,SSE,12.7,20.7,N/A,,Mostly Cloudy,160,2014-03-27 09:55:00
5:15 AM,32.0,26.6,80,29.80,10.0,SSE,13.8,19.6,N/A,,Overcast,150,2014-03-27 10:15:00
5:35 AM,33.8,26.6,75,29.79,10.0,SSE,13.8,20.7,N/A,,Overcast,160,2014-03-27 10:35:00
5:55 AM,33.8,26.6,75,29.78,10.0,South,13.8,20.7,N/A,,Overcast,170,2014-03-27 10:55:00
6:15 AM,33.8,26.6,75,29.77,10.0,South,13.8,20.7,N/A,,Overcast,170,2014-03-27 11:15:00
6:35 AM,33.8,26.6,75,29.77,10.0,SSE,13.8,19.6,N/A,,Overcast,160,2014-03-27 11:35:00
6:55 AM,33.8,26.6,75,29.76,10.0,South,15.0,19.6,N/A,,Overcast,170,2014-03-27 11:55:00
7:15 AM,33.8,26.6,75,29.76,10.0,South,13.8,-,N/A,,Overcast,170,2014-03-27 12:15:00
7:35 AM,33.8,26.6,75,29.75,10.0,South,12.7,-,N/A,,Overcast,170,2014-03-27 12:35:00
7:55 AM,33.8,28.4,81,29.74,10.0,South,15.0,20.7,N/A,,Overcast,170,2014-03-27 12:55:00
8:15 AM,33.8,28.4,81,29.74,10.0,South,16.1,-,0.01,,Overcast,170,2014-03-27 13:15:00
8:35 AM,35.6,28.4,75,29.73,10.0,South,17.3,-,0.01,,Overcast,170,2014-03-27 13:35:00
8:55 AM,33.8,28.4,81,29.73,10.0,South,15.0,20.7,0.01,,Overcast,170,2014-03-27 13:55:00
9:15 AM,33.8,28.4,81,29.73,10.0,South,16.1,-,N/A,,Overcast,170,2014-03-27 14:15:00
9:35 AM,35.6,30.2,81,29.73,10.0,South,16.1,21.9,N/A,,Overcast,180,2014-03-27 14:35:00
9:55 AM,35.6,30.2,81,29.72,8.0,South,16.1,-,N/A,,Overcast,170,2014-03-27 14:55:00
10:15 AM,33.8,30.2,87,29.73,5.0,South,16.1,23.0,N/A,,Overcast,170,2014-03-27 15:15:00
10:35 AM,33.8,30.2,87,29.72,4.0,South,17.3,-,N/A,,Overcast,170,2014-03-27 15:35:00
10:55 AM,33.8,30.2,87,29.72,4.0,South,17.3,21.9,N/A,,Overcast,170,2014-03-27 15:55:00
11:15 AM,33.8,30.2,87,29.71,4.0,South,16.1,-,N/A,,Overcast,170,2014-03-27 16:15:00
11:35 AM,33.8,30.2,87,29.71,3.0,South,15.0,-,N/A,,Overcast,170,2014-03-27 16:35:00
11:55 AM,33.8,30.2,87,29.70,3.0,South,15.0,-,N/A,,Overcast,180,2014-03-27 16:55:00
12:15 PM,33.8,30.2,87,29.69,3.0,South,17.3,21.9,N/A,,Overcast,180,2014-03-27 17:15:00
12:35 PM,33.8,30.2,87,29.68,4.0,South,16.1,21.9,N/A,,Overcast,180,2014-03-27 17:35:00
12:55 PM,33.8,30.2,87,29.67,5.0,South,16.1,24.2,N/A,,Overcast,170,2014-03-27 17:55:00
1:15 PM,33.8,30.2,87,29.66,5.0,South,18.4,21.9,N/A,,Overcast,180,2014-03-27 18:15:00
1:35 PM,35.6,30.2,81,29.66,7.0,South,16.1,25.3,N/A,,Overcast,180,2014-03-27 18:35:00
1:55 PM,35.6,30.2,81,29.65,6.0,South,12.7,-,N/A,,Overcast,180,2014-03-27 18:55:00
2:15 PM,35.6,30.2,81,29.64,7.0,South,15.0,20.7,N/A,,Overcast,180,2014-03-27 19:15:00
2:35 PM,35.6,30.2,81,29.62,7.0,South,12.7,-,N/A,,Overcast,170,2014-03-27 19:35:00
2:55 PM,33.8,30.2,87,29.62,6.0,South,12.7,-,N/A,,Overcast,180,2014-03-27 19:55:00
3:15 PM,33.8,30.2,87,29.62,5.0,South,15.0,-,N/A,,Overcast,170,2014-03-27 20:15:00
3:35 PM,33.8,32.0,93,29.60,4.0,South,13.8,-,N/A,,Overcast,170,2014-03-27 20:35:00
3:55 PM,33.8,30.2,87,29.60,4.0,South,11.5,-,N/A,,Overcast,170,2014-03-27 20:55:00
4:15 PM,33.8,30.2,87,29.60,3.0,South,13.8,19.6,N/A,,Overcast,170,2014-03-27 21:15:00
4:35 PM,33.8,32.0,93,29.58,2.0,South,15.0,-,0.01,,Overcast,170,2014-03-27 21:35:00
4:55 PM,33.8,32.0,93,29.57,5.0,South,12.7,17.3,0.03,,Overcast,170,2014-03-27 21:55:00
5:15 PM,33.8,32.0,93,29.56,3.0,South,16.1,-,N/A,,Overcast,170,2014-03-27 22:15:00
5:35 PM,33.8,32.0,93,29.55,2.0,South,15.0,-,0.02,,Overcast,170,2014-03-27 22:35:00
5:55 PM,33.8,32.0,93,29.54,3.0,South,15.0,19.6,0.02,,Overcast,170,2014-03-27 22:55:00
6:15 PM,33.8,32.0,93,29.54,2.0,SSE,13.8,19.6,N/A,,Overcast,160,2014-03-27 23:15:00
6:35 PM,33.8,32.0,93,29.53,2.0,SSE,12.7,19.6,0.01,,Overcast,160,2014-03-27 23:35:00
6:55 PM,33.8,32.0,93,29.53,3.0,South,13.8,-,0.04,,Overcast,170,2014-03-27 23:55:00
7:15 PM,33.8,32.0,93,29.53,3.0,SSE,10.4,16.1,0.01,,Overcast,160,2014-03-28 00:15:00
7:35 PM,33.8,32.0,93,29.53,2.5,SSE,11.5,18.4,0.04,,Overcast,160,2014-03-28 00:35:00
7:55 PM,33.8,32.0,93,29.52,4.0,SSE,10.4,-,0.07,,Overcast,160,2014-03-28 00:55:00
8:15 PM,33.8,32.0,93,29.52,4.0,SSE,9.2,-,0.04,,Overcast,150,2014-03-28 01:15:00
8:35 PM,35.6,32.0,87,29.51,5.0,SSE,9.2,-,0.06,,Overcast,160,2014-03-28 01:35:00
8:55 PM,35.6,32.0,87,29.50,4.0,SSE,6.9,-,0.12,,Overcast,150,2014-03-28 01:55:00
9:15 PM,35.6,33.8,93,29.50,5.0,SSE,5.8,-,0.04,,Overcast,150,2014-03-28 02:15:00
9:35 PM,35.6,33.8,93,29.49,7.0,SSE,6.9,-,0.04,,Overcast,150,2014-03-28 02:35:00
9:55 PM,35.6,33.8,93,29.49,4.0,SSE,4.6,-,0.05,,Overcast,160,2014-03-28 02:55:00
10:15 PM,35.6,33.8,93,29.48,3.0,South,4.6,-,0.01,,Overcast,170,2014-03-28 03:15:00
10:35 PM,35.6,33.8,93,29.48,4.0,South,4.6,-,0.01,,Overcast,170,2014-03-28 03:35:00
10:55 PM,35.6,33.8,93,29.47,4.0,Calm,Calm,-,0.01,,Overcast,0,2014-03-28 03:55:00
11:15 PM,35.6,33.8,93,29.47,3.0,NW,3.5,-,0.01,,Overcast,320,2014-03-28 04:15:00
11:35 PM,35.6,33.8,93,29.48,4.0,WNW,6.9,-,0.01,,Overcast,300,2014-03-28 04:35:00
11:55 PM,33.8,30.2,87,29.47,0.5,North,11.5,-,0.01,,Overcast,360,2014-03-28 04:55:00